sat.trackr.live / text

‹ back to catalog

STARLINK-31039

NORAD 58784 · 2024-011V

PAYLOAD ACTIVE UNKNOWN

§ Identity

Operator
Country
US
Launch date
2024-01-14
Launch site
AFWTR
Launch vehicle
Mass (kg)
RCS (m²)

Purposes: comms

External: N2YO · Heavens-Above · Gunter

§ Orbital elements

Epoch: 2026-05-25T01:45:10.771776Z

Period
94.11 min
Inclination
53.1603°
Eccentricity
0.0001028
Mean motion
15.30198550 rev/d
Perigee alt
474.5 km
Apogee alt
475.9 km
Semi-major
6,853.4 km
B*
3.2911e-5
RAAN
18.9622°
Arg perigee
73.6855°
Mean anomaly
286.4258°
Rev number
13,196

§ Raw data

STARLINK-310391 58784U 24011V   26145.07304134  .00000616  00000+0  32911-4 0  99922 58784  53.1603  18.9622 0001028  73.6855 286.4258 15.30198550131967

JSON: /api/v1/satellites/58784 · /tle

For live sub-satellite position, see the globe view (requires WebGL).

§ Visibility from observer

Set your observer location to see the next 7 days of passes ≥ 10°. The values pass through the URL so the page stays shareable.

No JS? Fill the form by hand. The geolocation button needs JavaScript.